Retour au catalogue

DELTA 1 R/B

ActifUNKNOWN
NORAD 1729·ROCKET BODY·🇺🇸 United States

Lancé Nov 6, 1965 depuis Cape Canaveral Space Force Station

Loading…

Prochains Passages (prochaines 24 heures)

TLE

FraisSource: Space-Track

Époque: Sep 14, 2026, 06:49 UTC

1 01729U 65089B   26257.28457388 -.00000102  00000-0 -17640-3 0  9990
2 01729  59.3943 172.7822 0709011 248.3796 203.6759 11.97580039661097

Suivez DELTA 1 R/B en temps réel avec AllMySat

Download on the App Store